VE7SCC Weather Reports


Display with metric or nautical units.
time (UTC)temp
F
wind
direction
speed
MPH
gust
MPH
rain 1hr
in
rain 24hr
in
rain mn
in
humidity
%
barometer
mb
20260504081016 65 339 1.0 5.0 0.00 0.00 0.00 52 1009.5
20260504050019 68 0.0 0.0 0.00 0.00 0.00 49 1009.3
20260504045039 69 0.0 0.0 0.00 0.00 0.00 47 1009.3
20260504044018 70 311 0.0 2.0 0.00 0.00 0.00 44 1009.3
20260504043018 70 307 0.0 2.0 0.00 0.00 0.00 44 1009.3
20260504042019 70 298 1.0 2.0 0.00 0.00 0.00 44 1009.3
20260504041018 70 299 1.0 3.0 0.00 0.00 0.00 45 1009.2
20260504040019 71 325 1.0 2.0 0.00 0.00 0.00 45 1009.2
20260504035016 72 331 2.0 3.0 0.00 0.00 0.00 43 1009.1
20260504034056 75 310 0.0 1.0 0.00 0.00 0.00 38 1009.0
20260504033016 76 340 1.0 5.0 0.00 0.00 0.00 32 1008.9
20260504032016 76 304 1.0 3.0 0.00 0.00 0.00 32 1008.9
20260504031017 76 314 1.0 3.0 0.00 0.00 0.00 33 1009.0
20260504030017 77 282 0.0 2.0 0.00 0.00 0.00 31 1009.0
20260504025016 77 241 1.0 5.0 0.00 0.00 0.00 31 1009.1
20260504024018 77 330 1.0 3.0 0.00 0.00 0.00 31 1009.1
20260504023017 78 331 1.0 3.0 0.00 0.00 0.00 31 1009.1
20260504022017 78 341 1.0 3.0 0.00 0.00 0.00 34 1009.2
20260504021017 78 238 1.0 5.0 0.00 0.00 0.00 33 1009.2
20260504020018 79 321 1.0 4.0 0.00 0.00 0.00 32 1009.3
20260504015018 80 220 1.0 6.0 0.00 0.00 0.00 30 1009.3
20260504014017 81 222 1.0 5.0 0.00 0.00 0.00 30 1009.5
20260504013018 81 233 1.0 6.0 0.00 0.00 0.00 30 1009.6
20260504012018 82 203 2.0 6.0 0.00 0.00 0.00 29 1009.7
20260504011018 83 282 3.0 6.0 0.00 0.00 0.00 28 1009.7
20260504010015 83 219 4.0 10.0 0.00 0.00 0.00 28 1009.8
20260504005016 84 221 3.0 6.0 0.00 0.00 0.00 28 1009.9
20260504004016 84 247 2.0 6.0 0.00 0.00 0.00 28 1010.1
20260504003016 84 213 3.0 8.0 0.00 0.00 0.00 29 1010.2
20260504002016 84 244 3.0 7.0 0.00 0.00 0.00 28 1010.2
20260504001017 84 258 4.0 10.0 0.00 0.00 0.00 28 1010.4
20260504000017 84 260 3.0 8.0 0.00 0.00 0.00 28 1010.5
20260503235017 83 213 4.0 8.0 0.00 0.00 0.00 29 1010.5
20260503234017 83 211 5.0 9.0 0.00 0.00 0.00 30 1010.7
20260503233017 84 232 2.0 6.0 0.00 0.00 0.00 31 1010.8
20260503232037 83 218 2.0 6.0 0.00 0.00 0.00 30 1011.0
20260503231018 83 210 4.0 9.0 0.00 0.00 0.00 31 1011.1
20260503230038 83 206 5.0 10.0 0.00 0.00 0.00 32 1011.2
20260503225018 83 202 4.0 9.0 0.00 0.00 0.00 33 1011.3
20260503224019 83 200 3.0 6.0 0.00 0.00 0.00 34 1011.5
20260503223018 83 207 4.0 9.0 0.00 0.00 0.00 33 1011.6
20260503222018 83 251 3.0 7.0 0.00 0.00 0.00 33 1011.8
20260503221016 83 282 2.0 10.0 0.00 0.00 0.00 34 1011.9
20260503220016 83 206 3.0 7.0 0.00 0.00 0.00 34 1012.0
20260503215016 83 229 3.0 8.0 0.00 0.00 0.00 34 1012.1
20260503214016 82 192 3.0 8.0 0.00 0.00 0.00 36 1012.3
20260503213017 82 199 3.0 8.0 0.00 0.00 0.00 35 1012.4
20260503212057 81 302 3.0 8.0 0.00 0.00 0.00 36 1012.4
20260503211017 80 167 2.0 7.0 0.00 0.00 0.00 41 1012.5
20260503210057 80 196 4.0 9.0 0.00 0.00 0.00 43 1012.6
20260503205017 79 173 5.0 11.0 0.00 0.00 0.00 45 1012.8
20260503204017 79 168 4.0 8.0 0.00 0.00 0.00 44 1012.9
20260503203018 79 197 5.0 9.0 0.00 0.00 0.00 45 1013.0
20260503202037 79 186 5.0 11.0 0.00 0.00 0.00 45 1013.1
20260503201018 78 203 4.0 9.0 0.00 0.00 0.00 46 1013.3
20260503200018 78 187 4.0 12.0 0.00 0.00 0.00 45 1013.4
20260503195018 78 210 4.0 8.0 0.00 0.00 0.00 44 1013.5
20260503194018 78 206 3.0 7.0 0.00 0.00 0.00 43 1013.7
20260503193018 76 191 4.0 9.0 0.00 0.00 0.00 44 1013.8
20260503192016 76 193 4.0 9.0 0.00 0.00 0.00 44 1013.9
20260503191016 75 186 6.0 10.0 0.00 0.00 0.00 46 1014.0
20260503190015 75 225 3.0 7.0 0.00 0.00 0.00 45 1014.1
20260503185016 75 214 4.0 7.0 0.00 0.00 0.00 45 1014.2
20260503184016 75 203 3.0 8.0 0.00 0.00 0.00 45 1014.2
20260503183017 74 221 6.0 8.0 0.00 0.00 0.00 45 1014.3
20260503182017 75 190 5.0 10.0 0.00 0.00 0.00 43 1014.4
20260503181042 74 190 5.0 9.0 0.00 0.00 0.00 44 1014.4
20260503175017 72 130 3.0 8.0 0.00 0.00 0.00 45 1014.5
20260503174017 72 165 2.0 5.0 0.00 0.00 0.00 41 1014.6
20260503173017 71 158 3.0 5.0 0.00 0.00 0.00 43 1014.6
20260503172038 71 138 2.0 6.0 0.00 0.00 0.00 45 1014.8
20260503171018 69 186 0.0 5.0 0.00 0.00 0.00 52 1014.9